TimeEDT,TemperatureF,Dew PointF,Humidity,Sea Level PressureIn,VisibilityMPH,Wind Direction,Wind SpeedMPH,Gust SpeedMPH,PrecipitationIn,Events,Conditions,WindDirDegrees,DateUTC
12:52 AM,55.9,48.9,77,29.93,10.0,Variable,5.8,-,N/A,,Mostly Cloudy,0,2012-10-07 04:52:00
1:52 AM,55.0,46.9,74,29.96,10.0,Variable,5.8,-,N/A,,Clear,0,2012-10-07 05:52:00
2:52 AM,55.0,45.0,69,29.97,10.0,Variable,4.6,-,N/A,,Clear,0,2012-10-07 06:52:00
3:52 AM,54.0,44.1,69,29.98,10.0,NW,3.5,-,N/A,,Clear,320,2012-10-07 07:52:00
4:52 AM,48.9,43.0,80,29.99,10.0,Calm,Calm,-,N/A,,Clear,0,2012-10-07 08:52:00
5:52 AM,48.0,44.1,86,30.00,10.0,Calm,Calm,-,N/A,,Clear,0,2012-10-07 09:52:00
6:52 AM,46.0,44.1,93,30.03,10.0,Calm,Calm,-,N/A,,Clear,0,2012-10-07 10:52:00
7:52 AM,50.0,46.0,86,30.05,10.0,Calm,Calm,-,N/A,,Clear,0,2012-10-07 11:52:00
8:52 AM,55.9,46.9,72,30.06,10.0,Calm,Calm,-,N/A,,Clear,0,2012-10-07 12:52:00
9:52 AM,57.9,44.1,60,30.07,10.0,Variable,5.8,-,N/A,,Partly Cloudy,0,2012-10-07 13:52:00
10:52 AM,57.9,45.0,62,30.06,10.0,Variable,3.5,-,N/A,,Clear,0,2012-10-07 14:52:00
11:52 AM,59.0,44.1,58,30.06,10.0,NE,3.5,-,N/A,,Partly Cloudy,50,2012-10-07 15:52:00
12:52 PM,59.0,44.1,58,30.05,10.0,NE,5.8,-,N/A,,Clear,50,2012-10-07 16:52:00
1:52 PM,57.0,44.1,62,30.06,10.0,Calm,Calm,-,0.00,,Overcast,0,2012-10-07 17:52:00
2:52 PM,55.9,46.0,69,30.06,10.0,Calm,Calm,-,N/A,,Overcast,0,2012-10-07 18:52:00
3:52 PM,55.0,48.9,80,30.07,10.0,Calm,Calm,-,0.01,,Overcast,0,2012-10-07 19:52:00
4:52 PM,53.1,51.1,93,30.05,5.0,Calm,Calm,-,0.05,Rain,Light Rain,0,2012-10-07 20:52:00
5:52 PM,52.0,50.0,93,30.06,6.0,Calm,Calm,-,0.03,Rain,Light Rain,0,2012-10-07 21:52:00
6:52 PM,51.1,48.0,89,30.06,10.0,Calm,Calm,-,0.05,Rain,Light Rain,0,2012-10-07 22:52:00
7:09 PM,51.8,48.2,88,30.05,10.0,Calm,Calm,-,0.01,Rain,Light Rain,0,2012-10-07 23:09:00
7:23 PM,51.8,48.2,88,30.05,10.0,Calm,Calm,-,0.01,,Overcast,0,2012-10-07 23:23:00
7:52 PM,51.1,48.0,89,30.05,10.0,Calm,Calm,-,0.01,,Overcast,0,2012-10-07 23:52:00
8:52 PM,50.0,48.0,93,30.04,10.0,Calm,Calm,-,0.00,,Overcast,0,2012-10-08 00:52:00
9:52 PM,52.0,48.0,86,30.02,10.0,Calm,Calm,-,N/A,,Overcast,0,2012-10-08 01:52:00
10:17 PM,51.8,48.2,88,30.01,10.0,Calm,Calm,-,0.00,Rain,Light Rain,0,2012-10-08 02:17:00
10:52 PM,51.1,48.9,92,30.03,4.0,Calm,Calm,-,0.03,Rain,Light Rain,0,2012-10-08 02:52:00
11:13 PM,50.0,48.2,94,30.03,3.0,NW,3.5,-,0.01,Rain,Light Rain,310,2012-10-08 03:13:00
11:52 PM,50.0,48.0,93,30.05,5.0,WNW,3.5,-,0.02,Rain,Light Rain,290,2012-10-08 03:52:00